Tracking 29892 objects as of 21-Nov-2024
HD Live streaming from Space Station
objects crossing your sky now

STARLINK-30765

Track STARLINK-30765 now!
10-day predictions
STARLINK-30765 is classified as:


NORAD ID: 58119
Int'l Code: 2023-162B
Perigee: 565.4 km
Apogee: 567.0 km
Inclination: 43.0 °
Period: 95.8 minutes
Semi major axis: 6937 km
RCS: Unknown
Launch date: October 22, 2023
Source: United States (US)
Launch site: AIR FORCE EASTERN TEST RANGE (AFETR)
Your satellite tracking list
Your tracking list is empty




NASA's NSSDC Master Catalog

Two Line Element Set (TLE):
1 58119U 23162B   24325.61609756  .00002004  00000-0  16332-3 0  9998
2 58119  43.0033 189.3553 0001201 264.1107  95.9599 15.02545266 60983
Source of the keplerian elements: AFSPC